Moab, UT

6:44 PM MDT on May 22, 2017 (GMT -0600)
Canyonlands

Weather History for KCNY - April, 2012

Change the Weather History Date:

Friday, April 13, 2012

  Actual Average Record
Temperature  
Mean Temperature 46 °F 52 °F  
Max Temperature 60 °F 66 °F 88 °F (1988)
Min Temperature 31 °F 37 °F 24 °F (2001)
Degree Days  
Heating Degree Days 19 13  
Month to date heating degree days 174 193  
Since 1 July heating degree days 4909 5241  
Cooling Degree Days 0 0  
Month to date cooling degree days 1 0  
Year to date cooling degree days 1 0  
Moisture  
Dew Point 22 °F    
Average Humidity 43    
Maximum Humidity 69    
Minimum Humidity 16    
Precipitation  
Precipitation T in 0.02 in 0.35 in (1941)
Month to date precipitation 0.02 0.26  
Year to date precipitation 0.63 2.19  
Sea Level Pressure  
Sea Level Pressure 29.77 in    
Wind  
Wind Speed 7 mph (South)    
Max Wind Speed 24 mph    
Max Gust Speed 29 mph    
Visibility 10 miles    
Events      
T = Trace of Precipitation, MM = Missing Value Source: NWS Daily Summary

Daily Weather History Graph

Daily Weather History Graph

Search for Another Location

Airport or City:

Trip Planner

Search our weather history database for the weather conditions in past years. The results will help you decide how hot, cold, wet, or windy it might be!

Date:

Astronomy

Apr. 13, 2012 Rise Set
Actual Time 6:44 AM MDT 7:54 PM MDT
Civil Twilight 6:17 AM MDT 8:22 PM MDT
Nautical Twilight 5:44 AM MDT 8:54 PM MDT
Astronomical Twilight 5:10 AM MDT 9:29 PM MDT
Moon 2:26 AM MDT (4/13) 12:51 PM MDT (4/13)
Length of Visible Light 14h 04m
Length of Day
13h 09m
Waning Gibbous, 47% of the Moon is Illuminated
Apr 13
Waning Gibbous
Apr 21
New
Apr 29
First Quarter
May 5
Full
May 12
Last Quarter

Hourly Weather History & Observations

Time (MDT) Temp. Windchill Dew Point Humidity Pressure Visibility Wind Dir Wind Speed Gust Speed Precip Events Conditions
12:53 AM 37.0 °F 33.3 °F 25.0 °F 62% 29.85 in 10.0 mi NNE 4.6 mph - N/A   Partly Cloudy
1:53 AM 34.0 °F - 23.0 °F 64% 29.88 in 10.0 mi Calm Calm - N/A   Clear
2:53 AM 34.0 °F 31.0 °F 23.0 °F 64% 29.87 in 10.0 mi SW 3.5 mph - N/A   Mostly Cloudy
3:53 AM 39.0 °F - 24.1 °F 55% 29.87 in 10.0 mi Calm Calm - N/A   Partly Cloudy
4:53 AM 33.1 °F - 23.0 °F 66% 29.88 in 10.0 mi Calm Calm - N/A   Clear
5:53 AM 37.0 °F - 27.0 °F 67% 29.86 in 10.0 mi Calm Calm - N/A   Clear
6:53 AM 30.9 °F 26.2 °F 21.9 °F 69% 29.88 in 10.0 mi SW 4.6 mph - N/A   Clear
7:53 AM 39.0 °F - 26.1 °F 60% 29.86 in 10.0 mi Calm Calm - N/A   Clear
8:53 AM 46.9 °F - 28.9 °F 50% 29.85 in 10.0 mi East 10.4 mph - N/A   Clear
9:53 AM 48.9 °F - 30.0 °F 48% 29.86 in 10.0 mi East 9.2 mph - N/A   Clear
10:53 AM 51.1 °F - 26.1 °F 38% 29.85 in 10.0 mi ESE 8.1 mph - N/A   Clear
11:53 AM 52.0 °F - 19.0 °F 27% 29.83 in 10.0 mi Variable 3.5 mph - N/A   Mostly Cloudy
12:53 PM 53.1 °F - 14.0 °F 21% 29.80 in 10.0 mi Variable 6.9 mph 25.3 mph N/A   Scattered Clouds
1:53 PM 54.0 °F - 15.1 °F 22% 29.79 in 10.0 mi Calm Calm - N/A   Mostly Cloudy
2:53 PM 57.0 °F - 15.1 °F 19% 29.73 in 10.0 mi West 10.4 mph - N/A   Mostly Cloudy
3:53 PM 57.9 °F - 14.0 °F 18% 29.68 in 10.0 mi ESE 11.5 mph 20.7 mph N/A   Overcast
4:53 PM 59.0 °F - 14.0 °F 17% 29.68 in 10.0 mi SW 10.4 mph - N/A   Overcast
5:53 PM 57.9 °F - 15.1 °F 19% 29.65 in 10.0 mi SSW 17.3 mph 27.6 mph N/A   Mostly Cloudy
6:53 PM 55.9 °F - 17.1 °F 22% 29.67 in 10.0 mi South 16.1 mph - N/A   Overcast
7:53 PM 54.0 °F - 19.0 °F 25% 29.66 in 10.0 mi South 10.4 mph - N/A   Overcast
8:53 PM 53.1 °F - 21.0 °F 29% 29.65 in 10.0 mi SSW 15.0 mph 21.9 mph N/A   Overcast
9:53 PM 50.0 °F - 25.0 °F 38% 29.66 in 10.0 mi South 6.9 mph - N/A   Overcast
10:53 PM 48.9 °F - 28.0 °F 44% 29.65 in 10.0 mi South 16.1 mph - N/A   Overcast
11:53 PM 46.9 °F - 30.0 °F 52% 29.63 in 10.0 mi Calm Calm - 0.00 in   Overcast